FW9341 Weather Reports


time (UTC)temp
C
wind
direction
speed
KPH
gust
KPH
rain 1hr
cm
rain 24hr
cm
rain mn
cm
humidity
%
barometer
mb
20260507060030 0 0 0.0 0.0 0.00 0.00 0.00 75 1014.6
20260507054535 0 0 0.0 0.0 0.00 0.00 0.00 75 1014.8
20260507053030 0 0 0.0 0.0 0.00 0.00 0.00 78 1014.9
20260507051531 0 0 0.0 0.0 0.00 0.00 0.00 72 1015.0
20260507050029 0 0 0.0 0.0 0.00 0.00 0.00 71 1014.9
20260507044530 0 0 0.0 0.0 0.00 0.00 0.00 75 1015.1
20260507043027 1 0 0.0 0.0 0.00 0.00 0.00 75 1015.1
20260507041528 0 0 0.0 0.0 0.00 0.00 0.00 69 1015.1
20260507040026 1 0 0.0 0.0 0.00 0.00 0.00 68 1015.1
20260507034526 1 0 0.0 1.6 0.00 0.00 0.00 69 1015.2
20260507033030 2 0 0.0 0.0 0.00 0.00 0.00 69 1015.2
20260507031530 2 0 0.0 0.0 0.00 0.00 0.00 66 1015.3
20260507030031 2 0 0.0 0.0 0.00 0.00 0.00 65 1015.4
20260507024528 2 0 0.0 0.0 0.00 0.00 0.00 63 1015.3
20260507023026 3 0 0.0 0.0 0.00 0.00 0.00 65 1015.3
20260507021530 3 0 0.0 0.0 0.00 0.00 0.00 65 1015.3
20260507020030 3 0 0.0 0.0 0.00 0.00 0.00 62 1015.1
20260507014531 4 0 0.0 0.0 0.00 0.00 0.00 62 1015.2
20260507013042 5 0 0.0 1.6 0.00 0.00 0.00 59 1015.2
20260507011526 5 0 0.0 3.2 0.00 0.00 0.00 61 1015.1
20260507010035 5 3 0.0 3.2 0.00 0.00 0.00 57 1015.3
20260507004529 5 318 0.0 3.2 0.00 0.00 0.00 58 1015.3
20260507003038 6 0 0.0 4.8 0.00 0.00 0.00 57 1015.5
20260507000033 6 297 0.0 8.0 0.00 0.00 0.00 52 1015.5
20260506234528 7 281 1.6 6.4 0.00 0.00 0.00 51 1015.6
20260506233028 7 327 1.6 14.5 0.00 0.00 0.00 51 1015.9
20260506231528 7 314 3.2 9.7 0.00 0.00 0.00 52 1016.0
20260506230028 7 322 1.6 11.3 0.00 0.00 0.00 52 1016.1
20260506224530 6 333 3.2 11.3 0.00 0.00 0.00 55 1016.1
20260506223041 6 317 4.8 8.0 0.00 0.00 0.00 53 1016.0
20260506221528 7 72 4.8 12.9 0.00 0.00 0.00 52 1016.1
20260506220026 7 321 3.2 16.1 0.00 0.00 0.00 52 1016.0
20260506214538 7 330 4.8 16.1 0.00 0.00 0.00 51 1016.0
20260506213029 7 300 4.8 8.0 0.00 0.00 0.00 52 1016.1
20260506211529 7 304 4.8 11.3 0.00 0.00 0.00 53 1016.2
20260506210030 7 110 1.6 11.3 0.00 0.00 0.00 54 1016.3
20260506204529 6 207 1.6 11.3 0.00 0.00 0.00 55 1016.5
20260506203033 6 248 3.2 12.9 0.00 0.00 0.00 51 1016.6
20260506201529 6 333 1.6 8.0 0.00 0.00 0.00 54 1016.5
20260506200027 6 255 3.2 19.3 0.00 0.00 0.00 56 1016.7
20260506194528 6 11 4.8 11.3 0.00 0.00 0.00 55 1016.8
20260506193027 5 349 3.2 9.7 0.00 0.00 0.00 57 1016.7
20260506191528 5 313 3.2 9.7 0.00 0.00 0.00 59 1016.8
20260506190028 5 307 4.8 9.7 0.00 0.00 0.00 60 1016.9
20260506184542 5 239 3.2 8.0 0.00 0.00 0.00 60 1016.9
20260506183037 5 336 3.2 14.5 0.00 0.00 0.00 60 1017.0
20260506181537 5 319 3.2 8.0 0.00 0.00 0.00 60 1017.1
20260506180034 4 296 1.6 6.4 0.00 0.00 0.00 62 1017.1
20260506174529 4 325 1.6 4.8 0.00 0.00 0.00 61 1017.3
20260506173028 3 324 3.2 9.7 0.00 0.00 0.00 63 1017.3
20260506171528 3 305 1.6 9.7 0.00 0.00 0.00 64 1017.5
20260506170028 3 4 1.6 4.8 0.00 0.00 0.00 64 1017.6
20260506164535 3 309 3.2 11.3 0.00 0.00 0.00 61 1017.5
20260506163030 3 333 3.2 6.4 0.00 0.00 0.00 61 1017.6
20260506161528 3 240 3.2 9.7 0.00 0.00 0.00 62 1017.7
20260506160026 3 304 1.6 6.4 0.00 0.00 0.00 64 1017.6
20260506154528 2 296 1.6 6.4 0.00 0.00 0.00 65 1017.5
20260506153027 2 278 3.2 8.0 0.00 0.00 0.00 61 1017.5
20260506151528 2 337 0.0 8.0 0.00 0.00 0.00 64 1017.4
20260506150031 2 275 1.6 6.4 0.00 0.00 0.00 63 1017.4
20260506144529 2 308 1.6 4.8 0.00 0.00 0.00 66 1017.5
20260506143032 2 316 1.6 8.0 0.00 0.00 0.00 65 1017.4
20260506141526 2 342 0.0 3.2 0.00 0.00 0.00 66 1017.4
20260506140029 2 0 0.0 4.8 0.00 0.00 0.00 66 1017.4
20260506134531 1 319 1.6 3.2 0.00 0.00 0.00 67 1017.3
20260506133028 1 0 0.0 1.6 0.00 0.00 0.00 67 1017.3
20260506131534 1 0 0.0 1.6 0.00 0.00 0.00 66 1017.2
20260506130027 1 0 0.0 1.6 0.00 0.00 0.00 68 1017.1
20260506124529 1 0 0.0 4.8 0.00 0.00 0.00 69 1016.8
20260506123030 1 0 0.0 3.2 0.00 0.00 0.00 71 1016.7
20260506121527 1 274 0.0 1.6 0.00 0.00 0.00 70 1016.4
20260506120026 1 314 0.0 3.2 0.00 0.00 0.00 70 1016.1
20260506114528 1 0 0.0 3.2 0.00 0.00 0.00 72 1015.9
20260506113037 1 311 0.0 3.2 0.00 0.00 0.00 71 1015.5
20260506111528 1 271 0.0 3.2 0.00 0.00 0.00 74 1015.5
20260506110026 1 267 0.0 1.6 0.00 0.00 0.00 74 1015.3
20260506104533 1 0 0.0 3.2 0.00 0.00 0.00 74 1015.5
20260506103029 0 0 0.0 1.6 0.00 0.00 0.00 74 1015.7
20260506101527 0 0 0.0 1.6 0.00 0.00 0.00 77 1015.7
20260506100028 0 0 0.0 0.0 0.00 0.00 0.00 77 1015.3
20260506094530 0 0 0.0 0.0 0.00 0.00 0.00 78 1015.1
20260506093028 0 0 0.0 0.0 0.00 0.00 0.00 78 1015.1
20260506091530 0 0 0.0 0.0 0.00 0.00 0.00 79 1015.2
20260506090032 -1 0 0.0 0.0 0.00 0.00 0.00 78 1015.2
20260506084525 -1 0 0.0 0.0 0.00 0.00 0.00 79 1015.1
20260506083027 -1 0 0.0 0.0 0.00 0.00 0.00 79 1014.9
20260506081526 -1 0 0.0 0.0 0.00 0.00 0.00 78 1014.8
20260506073030 -1 0 0.0 1.6 0.00 0.00 0.00 77 1015.0
20260506071536 -1 0 0.0 1.6 0.00 0.00 0.00 79 1014.7
20260506061528 0 0 0.0 0.0 0.00 0.00 0.00 78 1015.0